CAPE
0 0 0 0 0 0 0 0 0 0 0 0 0 0 0 0 0 0 0 0 0 0 0 0 0 0 0 0 0 0 0 0 0 0 0 0 0 0 0 0 0 0 0
0 0 0 0 0 0 0 0 0 0 0 0 0 0 0 0 0 0 0 0 0 0 0 0 0 0 0 0 0 0 0 0 0 0 0 0 0 0 0 0 0 0 0
0 0 0 0 0 0 0 0 0 0 0 0 0 0 0 0 0 0 0 0 0 0 0 0 0 0 0 0 0 0 0 0 0 0 0 0 0 0 0 0 0 0 0
0 0 0 0 0 0 0 0 0 0 0 0 0 0 0 0 0 0 0 0 0 0 0 0 0 0 0 0 0 0 0 0 0 0 0 0 0 0 0 0 0 0 0
0 0 0 0 0 0 0 0 0 0 0 0 0 0 0 0 0 0 0 0 0 0 0 0 0 0 13 21 8 2 1 0 1 3 2 2 2 2 1 0 0 0 0
0 0 0 0 0 0 0 0 0 0 0 0 0 0 0 0 0 0 0 0 0 2 6 0 11 27 0 0 19 20 42 11 8 2 2 1 1 2 0 1 1 0 1
0 0 0 0 0 0 0 0 0 0 0 0 0 0 0 0 0 0 3 10 10 15 19 9 0 1 14 0 1 7 5 0 15 18 20 20 12 3 1 2 1 1 0
0 0 0 0 0 0 0 0 0 0 0 0 0 0 0 0 0 0 9 10 6 3 4 9 3 1 0 2 2 1 0 0 0 0 0 0 0 0 1 0 0 0 0
0 0 0 0 0 0 0 0 0 0 0 0 0 0 0 0 0 7 5 3 4 0 3 9 3 3 4 11 8 13 0 0 0 10 6 25 33 36 30 0 0 1 1
0 0 0 0 0 0 0 0 0 0 0 0 0 0 0 0 0 7 14 15 18 2 9 1 5 11 23 34 9 7 1 1 1 0 0 0 0 0 1 13 0 7 6
0 0 0 0 0 0 0 0 0 0 0 0 0 0 0 0 0 7 9 20 7 5 8 1 0 9 5 10 29 6 1 1 2 0 0 2 2 0 0 0 1 8 6
0 0 0 0 0 0 0 0 0 0 0 0 0 0 0 0 0 7 19 21 23 16 10 1 0 14 32 24 13 1 7 3 0 0 1 3 1 2 2 2 3 4 2
0 0 0 0 0 0 0 0 0 0 0 0 0 0 1 2 0 1 2 4 33 19 3 2 23 20 14 1 0 2 0 0 1 0 1 1 0 0 0 0 0 0 0
0 0 0 0 0 0 0 0 0 0 0 0 1 1 0 2 0 0 0 3 18 2 0 0 5 2 0 0 0 0 0 0 0 3 1 1 0 0 0 0 0 0 0
0 0 0 0 0 0 0 0 0 0 1 5 10 0 2 0 0 18 25 26 6 11 9 0 0 0 0 0 0 0 1 0 0 0 0 0 0 1 0 1 4 0 2
0 0 0 0 0 0 0 0 0 0 2 7 2 6 10 14 21 21 31 24 19 6 2 0 0 0 0 0 0 0 1 1 0 0 1 1 1 1 1 1 2 8 4
0 0 0 0 0 0 0 0 0 0 0 2 5 9 8 15 13 9 40 9 5 3 0 0 1 2 2 3 1 0 0 0 0 0 0 1 1 1 2 2 2 1 3
0 0 0 0 0 0 0 0 0 1 1 0 0 1 5 10 12 26 6 5 0 0 0 2 0 2 3 2 2 1 0 0 0 0 0 0 2 2 2 2 3 2 2
0 0 0 0 0 0 0 0 2 1 1 1 0 0 1 1 16 2 2 0 1 0 2 1 2 1 3 1 1 0 1 1 0 0 0 1 2 2 2 4 2 2 3
0 0 0 0 0 0 0 1 1 1 1 0 1 2 0 1 0 0 0 0 0 1 1 0 1 2 1 1 0 0 1 0 0 0 1 3 3 3 3 2 3 2 2
0 0 0 0 0 0 0 0 0 0 0 0 1 0 14 4 0 1 0 0 1 0 0 0 1 1 1 1 0 1 0 0 0 0 0 1 3 4 3 3 1 1 0
0 0 0 0 0 0 0 0 1 1 1 1 2 0 4 0 1 0 0 0 0 1 0 0 1 3 1 1 1 0 0 0 0 0 0 1 0 3 2 3 1 1 1
0 0 0 0 0 0 1 0 1 0 1 1 0 0 0 1 0 0 0 0 0 0 0 0 0 1 1 3 1 1 0 0 0 0 0 0 0 1 2 2 0 6 5
0 0 0 0 1 0 0 1 0 0 1 5 0 0 1 0 0 0 0 0 1 1 0 0 0 1 1 1 0 1 1 0 0 0 0 0 0 0 0 1 4 3 3
0 0 0 0 0 0 0 0 1 1 0 1 0 2 1 0 0 0 0 0 1 0 0 0 0 1 1 1 1 1 1 0 0 0 0 0 0 0 0 0 0 6 3
0 0 0 0 0 0 1 0 3 0 0 1 1 6 1 0 0 0 0 0 0 0 0 0 0 0 1 1 1 1 1 0 0 0 0 0 0 0 0 1 1 0 3
CIN
-0 -0 -0 -0 -0 -0 -0 -0 -0 -0 -0 -0 -0 -0 -0 -0 -0 -0 -0 -0 -0 -0 -0 -0 -0 -0 -0 -0 -0 -0 -0 -0 -0 -0 -0 -0 -0 -0 -0 -0 -0 -0 -0
-0 -0 -0 -0 -0 -0 -0 -0 -0 -0 -0 -0 -0 -0 -0 -0 -0 -0 -0 -0 -0 -0 -0 -0 -0 -0 -0 -0 -0 -0 -0 -0 -0 -0 -0 -0 -0 -0 -0 -0 -0 -0 -0
-0 -0 -0 -0 -0 -0 -0 -0 -0 -0 -0 -0 -0 -0 -0 -0 -0 -0 -0 -0 -0 -0 -0 -0 -0 -0 -0 -0 -0 -0 -0 -0 -0 -0 -0 -0 -0 -0 -0 -0 -0 -0 -0
-0 -0 -0 -0 -0 -0 -0 -0 -0 -0 -0 -0 -0 -0 -0 -0 -0 -0 -0 -0 -0 -0 -0 -0 -0 -0 -0 -0 -0 -0 -0 -0 -0 -0 -0 -0 -0 -0 -0 -0 -0 -0 -0
-0 -0 -0 -0 -0 -0 -0 -0 -0 -0 -0 -0 -0 -0 -0 -0 -0 -0 -0 -0 -0 -0 -0 -0 -0 -2 -0 -0 -2 -0 -0 -0 -0 -0 -0 -0 -0 -0 -0 -0 -0 -0 -0
-0 -0 -0 -0 -0 -0 -0 -0 -0 -0 -0 -0 -0 -0 -0 -0 -0 -0 -0 -0 -0 -16 -3 -10 -1 -0 -0 -0 -0 -0 -1 -0 -0 -0 -0 -0 -0 -0 -0 -0 -0 -0 -0
-0 -0 -0 -0 -0 -0 -0 -0 -0 -0 -0 -0 -0 -0 -0 -0 -0 -0 -1 -1 -3 -0 -0 -2 -2 -3 -0 -0 -0 -0 -0 -0 -1 -2 -0 -0 -0 -4 -0 -2 -1 -0 -0
-0 -0 -0 -0 -0 -0 -0 -0 -0 -0 -0 -0 -0 -0 -0 -0 -0 -0 -0 -1 -5 -4 -4 -5 -1 -0 -2 -0 -1 -0 -0 -0 -0 -0 -12 -0 -0 -0 -7 -0 -0 -0 -0
-0 -0 -0 -0 -0 -0 -0 -0 -0 -0 -0 -0 -0 -0 -0 -0 -0 -0 -0 -3 -5 -2 -0 -2 -3 -5 -1 -0 -1 -0 -0 -0 -0 -0 -6 -0 -0 -1 -3 -0 -0 -0 -0
-0 -0 -0 -0 -0 -0 -0 -0 -0 -0 -0 -0 -0 -0 -0 -0 -0 -0 -0 -1 -0 -0 -2 -2 -0 -2 -0 -0 -1 -0 -0 -0 -0 -0 -0 -0 -0 -0 -1 -1 -0 -0 -0
-0 -0 -0 -0 -0 -0 -0 -0 -0 -0 -0 -0 -0 -0 -0 -0 -0 -0 -0 -1 -1 -3 -0 -1 -0 -0 -1 -1 -0 -0 -0 -0 -1 -0 -0 -0 -0 -0 -9 -0 -0 -0 -2
-0 -0 -0 -0 -0 -0 -0 -0 -0 -0 -0 -0 -0 -0 -0 -0 -0 -0 -0 -0 -0 -0 -0 -0 -0 -0 -0 -0 -1 -1 -1 -2 -0 -0 -0 -0 -0 -0 -0 -0 -2 -0 -1
-0 -0 -0 -0 -0 -0 -0 -0 -0 -0 -0 -0 -0 -0 -2 -0 -0 -0 -0 -0 -0 -0 -0 -3 -0 -0 -0 -0 -0 -1 -1 -0 -0 -0 -0 -0 -0 -0 -0 -0 -0 -0 -0
-0 -0 -0 -0 -0 -0 -0 -0 -0 -0 -0 -0 -0 -0 -0 -0 -0 -0 -0 -6 -0 -0 -0 -0 -0 -0 -0 -0 -0 -2 -0 -0 -1 -0 -0 -0 -0 -0 -0 -0 -0 -0 -0
-0 -0 -0 -0 -0 -0 -0 -0 -0 -0 -0 -0 -0 -0 -0 -0 -0 -1 -1 -0 -1 -0 -2 -0 -0 -0 -0 -0 -0 -0 -4 -0 -0 -0 -0 -0 -0 -0 -1 -9 -6 -0 -0
-0 -0 -0 -0 -0 -0 -0 -0 -0 -0 -0 -0 -0 -1 -1 -0 -0 -1 -0 -0 -0 -0 -1 -0 -0 -0 -0 -0 -4 -0 -2 -2 -0 -1 -0 -0 -0 -0 -0 -0 -0 -0 -0
-0 -0 -0 -0 -0 -0 -0 -0 -0 -0 -0 -0 -0 -0 -0 -0 -0 -1 -0 -1 -0 -2 -0 -0 -0 -0 -0 -0 -4 -8 -0 -0 -0 -0 -0 -0 -0 -0 -0 -0 -0 -0 -0
-0 -0 -0 -0 -0 -0 -0 -0 -0 -0 -0 -0 -0 -0 -0 -0 -0 -0 -0 -0 -0 -0 -0 -0 -2 -0 -0 -2 -2 -3 -0 -1 -0 -0 -0 -0 -0 -0 -0 -0 -0 -0 -0
-0 -0 -0 -0 -0 -0 -0 -0 -0 -0 -0 -0 -0 -0 -0 -0 -0 -0 -0 -0 -0 -0 -0 -0 -1 -0 -1 -0 -1 -0 -1 -2 -0 -0 -0 -0 -0 -0 -0 -0 -0 -0 -0
-0 -0 -0 -0 -0 -0 -0 -0 -0 -0 -1 -1 -0 -0 -0 -2 -0 -0 -0 -0 -0 -0 -0 -0 -0 -0 -0 -0 -0 -2 -1 -2 -0 -0 -0 -0 -0 -0 -0 -0 -0 -0 -0
-0 -0 -0 -0 -0 -0 -0 -0 -0 -2 -2 -0 -1 -0 -0 -1 -0 -0 -0 -0 -0 -0 -0 -0 -1 -1 -1 -0 -0 -1 -0 -1 -0 -0 -0 -0 -0 -0 -0 -0 -0 -0 -0
-0 -0 -0 -0 -0 -0 -0 -0 -1 -1 -0 -0 -0 -0 -0 -0 -0 -0 -0 -0 -0 -0 -0 -0 -0 -0 -0 -1 -0 -0 -0 -0 -0 -0 -0 -0 -0 -0 -0 -0 -1 -0 -0
-0 -0 -0 -0 -0 -0 -1 -3 -0 -0 -0 -1 -0 -0 -0 -0 -0 -0 -0 -0 -0 -0 -0 -0 -0 -0 -0 -0 -0 -0 -1 -0 -0 -0 -0 -0 -0 -0 -0 -0 -2 -0 -0
-0 -0 -0 -0 -0 -0 -0 -1 -1 -0 -0 -1 -0 -0 -0 -0 -0 -0 -0 -0 -0 -0 -0 -0 -0 -0 -0 -0 -0 -0 -0 -0 -1 -0 -0 -0 -0 -0 -0 -0 -1 -0 -0
-0 -0 -0 -0 -0 -0 -0 -0 -0 -1 -0 -1 -0 -2 -0 -0 -0 -0 -0 -0 -0 -0 -0 -0 -0 -0 -0 -0 -0 -0 -0 -0 -0 -0 -0 -0 -0 -0 -0 -0 -0 -1 -1
-0 -0 -0 -0 -0 -0 -0 -1 -2 -0 -0 -0 -3 -0 -0 -0 -0 -0 -0 -0 -0 -0 -0 -0 -0 -0 -0 -0 -0 -0 -0 -1 -0 -0 -0 -0 -0 -0 -0 -47 -23 -0 -0
Wind_Speed
17 19 21 22 23 23 25 27 29 29 30 31 32 34 35 37 37 38 39 40 41 41 40 40 42 39 40 38 35 37 38 37 45 51 41 38 39 41 40 39 39 40 41
19 21 21 22 24 26 28 28 29 31 31 32 34 36 37 37 37 38 40 39 39 41 41 41 41 39 38 37 37 37 37 34 35 44 41 40 38 36 39 39 39 39 39
20 22 23 25 27 28 29 31 31 32 33 34 35 36 36 37 37 38 38 39 38 38 38 39 38 36 36 34 32 30 29 29 29 32 37 33 35 33 34 35 36 37 37
23 24 26 27 29 30 31 32 32 32 34 34 35 36 37 37 38 38 38 38 36 36 35 33 32 32 32 31 29 26 25 24 26 27 27 26 30 30 31 34 34 31 35
23 26 29 30 31 31 32 31 31 32 34 34 35 36 37 38 37 37 37 36 35 32 31 30 31 28 25 23 25 24 23 21 19 20 21 24 25 26 26 30 31 31 31
26 29 31 32 32 32 30 30 31 33 34 34 35 37 37 36 37 41 40 39 31 30 31 31 28 28 30 34 32 32 28 29 28 24 22 20 20 22 24 27 30 31 36
28 30 31 31 32 30 28 29 32 33 33 34 35 35 36 38 40 43 40 36 32 31 29 27 25 25 27 30 26 27 29 31 27 29 30 26 29 24 24 24 29 35 36
30 31 32 31 30 27 28 30 32 33 33 33 33 35 36 36 40 40 36 33 31 27 22 20 20 20 19 20 20 19 21 23 27 27 26 26 24 23 26 27 29 34 40
32 33 30 28 29 28 29 32 33 32 32 31 33 36 35 35 34 34 33 25 21 21 24 18 12 10 12 13 19 23 28 30 31 36 38 32 25 18 20 23 31 31 40
31 31 29 28 28 28 30 31 31 29 29 33 30 31 31 29 27 26 28 22 22 23 18 9 13 10 12 16 19 20 15 23 23 23 30 26 30 34 37 38 34 36 38
27 28 29 27 27 28 28 29 29 30 32 32 28 30 28 24 22 23 17 25 22 9 20 17 19 15 14 14 14 28 27 23 33 32 39 21 15 18 23 25 25 27 26
26 28 28 27 27 26 28 29 30 32 31 27 26 25 25 22 14 15 26 16 21 27 11 12 11 11 12 13 26 36 34 31 26 26 25 19 15 20 17 18 21 24 25
27 27 26 25 25 27 29 35 22 24 22 21 19 17 17 16 19 10 22 17 23 18 20 10 12 19 25 24 21 18 28 23 19 19 20 22 22 24 28 28 26 27 31
26 26 26 26 27 29 34 20 19 17 17 16 14 12 12 11 11 9 16 6 16 22 11 15 21 24 25 24 22 18 19 17 16 17 21 27 28 28 28 29 30 29 28
25 25 26 25 25 37 20 18 18 18 13 15 14 14 9 17 13 13 27 30 18 32 37 24 24 23 23 21 20 19 16 14 13 20 28 30 31 32 32 32 30 27 24
25 27 27 28 34 28 12 18 23 19 11 19 26 14 13 9 12 15 27 29 32 38 31 22 20 19 18 16 17 16 15 11 4 19 21 20 18 18 19 21 25 29 27
27 27 29 36 34 35 25 16 13 22 14 18 21 22 7 15 16 19 21 32 36 33 22 20 19 18 19 16 11 10 4 17 19 18 17 16 15 16 17 17 18 21 18
28 29 34 33 29 29 27 15 13 9 19 17 7 10 8 18 16 18 25 18 14 18 18 15 17 16 16 10 7 8 18 18 17 16 15 14 12 12 14 12 11 15 19
27 31 34 31 27 23 17 14 8 8 8 8 10 8 9 9 10 10 7 10 8 10 14 11 12 11 9 5 6 21 20 18 17 16 14 12 12 14 15 10 8 11 10
30 32 31 25 17 12 16 8 9 6 6 7 7 7 7 7 13 8 7 8 10 11 10 11 9 11 6 3 14 22 20 18 16 15 14 11 11 9 10 12 8 9 3
31 28 27 32 8 13 9 10 6 6 7 7 6 7 13 7 8 9 10 13 12 10 10 10 10 7 5 5 20 22 21 19 17 16 12 11 6 7 8 8 6 9 13
23 23 24 25 14 13 11 7 5 7 8 7 7 7 10 6 8 8 8 8 10 10 11 9 8 5 3 7 21 23 22 20 18 16 14 11 7 7 11 9 5 21 20
17 16 18 26 16 8 10 4 9 10 9 7 7 7 7 7 7 8 8 9 9 9 9 7 6 3 3 9 21 24 23 22 19 16 14 13 8 6 7 6 5 19 20
10 8 10 13 7 11 8 12 11 12 12 5 7 8 8 8 8 9 9 8 8 9 9 7 6 2 4 9 21 24 24 24 21 17 14 11 9 7 5 3 10 27 21
1 3 12 6 10 7 11 14 13 12 10 7 7 9 10 10 11 11 12 10 9 10 9 8 4 1 7 10 19 24 24 25 23 19 15 13 11 8 3 1 6 17 23
7 17 5 11 10 10 11 16 15 13 11 9 8 10 12 13 13 14 16 15 11 11 11 8 4 4 10 14 18 23 23 24 24 21 17 13 11 11 7 2 13 18 21
Wind_Direction
337 336 334 333 333 333 331 329 327 326 325 323 322 321 320 319 318 317 316 315 313 312 313 311 310 310 307 306 305 303 301 299 297 296 299 298 294 291 288 286 283 281 278
337 336 335 333 331 330 329 328 327 325 324 323 322 320 320 320 319 318 316 316 315 313 313 313 312 311 308 307 305 304 302 300 299 298 299 298 294 294 290 285 282 281 279
338 336 334 332 330 329 328 327 326 325 324 324 323 322 322 321 320 319 318 317 315 315 315 315 314 313 312 311 309 308 306 303 301 300 302 303 298 295 292 290 285 281 280
337 335 333 332 330 328 327 327 327 327 326 326 325 324 323 322 321 321 320 318 318 317 318 318 318 316 314 313 312 311 310 307 305 304 305 305 303 297 295 292 288 286 281
338 336 333 332 330 329 329 329 329 330 328 328 327 326 325 324 324 323 322 320 319 319 320 318 317 317 316 314 316 315 314 309 304 304 302 306 303 298 297 295 290 288 285
337 335 335 333 332 331 331 332 332 331 330 329 329 328 327 327 326 323 321 319 321 321 321 321 322 320 318 314 315 314 312 313 314 313 310 309 310 305 301 294 289 288 283
336 336 335 335 334 334 335 334 334 333 333 331 330 331 329 328 326 321 322 323 324 323 322 323 324 325 322 320 319 318 314 311 312 309 307 305 301 299 295 293 289 284 282
337 335 334 335 335 336 336 336 335 335 334 334 334 333 332 332 328 327 327 326 326 328 328 329 328 327 327 328 323 321 319 317 313 311 308 303 298 293 288 286 287 285 279
338 337 340 340 338 338 337 337 336 336 336 338 337 334 335 335 335 335 333 336 336 334 331 331 323 312 320 310 323 321 316 314 313 307 305 304 298 280 283 285 283 282 277
341 342 344 343 341 340 339 338 339 340 340 337 340 340 339 340 342 342 340 341 339 336 337 322 333 315 312 334 330 327 315 324 325 319 316 309 300 292 284 278 281 279 280
347 347 347 347 345 344 343 344 344 342 339 341 344 343 344 347 349 345 345 342 342 318 268 343 344 344 335 327 326 328 329 329 321 321 313 322 308 302 296 289 284 282 281
350 349 350 351 350 350 348 347 345 343 345 347 347 348 348 352 347 280 279 268 267 273 322 345 344 335 329 323 335 322 320 321 326 329 336 344 344 327 312 303 296 291 289
351 353 355 356 356 353 349 337 354 353 351 350 350 344 354 350 359 296 275 269 271 266 352 332 333 346 344 343 342 340 329 329 333 335 336 332 325 313 295 297 300 294 280
356 357 357 356 354 351 338 1 358 352 352 348 303 344 339 351 352 350 272 309 360 353 341 354 352 347 345 346 346 345 340 337 338 335 325 314 307 305 301 292 287 285 276
360 358 357 358 357 317 2 1 358 359 350 297 288 293 319 3 360 286 285 291 321 326 310 351 351 352 352 354 355 351 348 348 347 329 299 272 274 280 280 286 291 287 281
359 359 358 355 335 323 355 359 2 1 331 285 289 283 0 339 285 282 289 292 297 315 345 356 357 356 355 357 359 1 0 4 21 231 238 235 229 230 236 238 242 267 280
359 360 356 328 334 338 2 360 317 2 0 288 286 288 310 283 282 282 281 298 338 345 360 1 360 360 1 1 10 20 98 223 233 231 223 223 227 234 241 234 221 213 207
359 359 336 336 356 358 2 2 359 332 292 292 344 300 305 285 284 286 293 312 8 12 8 2 4 5 7 16 36 183 233 231 226 222 220 221 227 237 246 236 232 226 216
1 351 329 352 5 10 10 8 2 305 309 348 359 6 299 295 299 301 346 13 354 2 9 1 8 8 18 42 160 240 230 229 222 217 220 223 241 256 257 270 248 226 212
351 321 315 2 17 12 15 5 298 335 335 339 339 340 321 354 18 353 351 6 9 10 3 5 1 15 27 100 213 242 236 224 208 207 222 231 248 257 269 279 267 265 209
319 306 305 322 302 18 14 293 316 335 309 316 326 306 298 338 355 7 9 18 14 2 358 359 10 17 43 151 231 245 236 215 202 216 213 230 239 274 286 293 308 65 81
297 296 300 303 20 29 293 300 323 308 304 308 311 321 309 348 360 353 352 351 356 359 4 360 6 21 78 169 239 247 237 216 205 210 229 236 247 272 289 306 318 58 88
287 288 293 309 31 291 294 324 298 297 302 313 324 340 341 341 331 332 326 326 339 343 350 0 6 12 123 178 234 247 237 215 205 207 227 246 246 269 288 316 49 75 91
281 283 291 37 307 291 300 297 296 297 299 330 340 350 359 352 352 348 343 337 333 346 355 355 10 358 183 180 227 249 225 216 207 205 214 227 248 264 277 346 84 62 100
3 21 46 309 300 298 298 301 299 300 302 318 343 347 4 0 360 358 360 355 352 347 339 352 1 8 215 190 206 247 241 220 213 209 206 224 243 255 230 95 98 87 67
56 47 39 299 302 298 300 304 302 302 306 319 345 8 7 5 4 4 5 5 344 332 347 348 314 252 231 210 197 226 246 232 223 219 218 219 237 265 254 163 84 78 67